This is the latest recevied weather packets stored in our database for station/object TG6YMD-19. If no packets are shown the sender has not sent any weather packets the latest 10 day(s).
| Time | Temp. | Humidity | Pressure | Rain* | Wind** | Luminosity | Snow |
|---|---|---|---|---|---|---|---|
| 1777729527 | 26.67° C | 69% | 1012 hPa | 0 mm | - | - | - |
| 1777728926 | 26.67° C | 69% | 1012 hPa | 0 mm | - | - | - |
| 1777728325 | 26.67° C | 69% | 1012 hPa | 0 mm | - | - | - |
| 1777727725 | 26.67° C | 69% | 1012 hPa | 0 mm | - | - | - |
| 1777727124 | 26.67° C | 69% | 1012 hPa | 0 mm | - | - | - |
| 1777726523 | 25.56° C | 73% | 1012 hPa | 0 mm | - | - | - |
| 1777725923 | 25.56° C | 73% | 1012 hPa | 0 mm | - | - | - |
| 1777725322 | 25.56° C | 73% | 1012 hPa | 0 mm | - | - | - |
| 1777724721 | 25.56° C | 73% | 1011 hPa | 0 mm | - | - | - |
| 1777724121 | 25.56° C | 73% | 1011 hPa | 0 mm | - | - | - |
| 1777723520 | 23.89° C | 86% | 1011 hPa | 0 mm | - | - | - |
| 1777722919 | 24.44° C | 86% | 1011 hPa | 0 mm | - | - | - |
| 1777722319 | 25° C | 86% | 1011 hPa | 0 mm | - | - | - |
| 1777721718 | 21.67° C | 85% | 1011 hPa | 0 mm | - | - | - |
| 1777721118 | 22.22° C | 85% | 1011 hPa | 0 mm | - | - | - |
| 1777720517 | 21.11° C | 83% | 1011 hPa | 0 mm | - | - | - |
| 1777719916 | 21.11° C | 83% | 1011 hPa | 0 mm | - | - | - |
| 1777719316 | 21.67° C | 83% | 1011 hPa | 0 mm | - | - | - |
| 1777718715 | 21.67° C | 83% | 1011 hPa | 0 mm | - | - | - |
| 1777718115 | 22.22° C | 83% | 1011 hPa | 0 mm | - | - | - |
| 1777717514 | 22.78° C | 83% | 1010 hPa | 0 mm | - | - | - |
| 1777716913 | 23.33° C | 83% | 1010 hPa | 0 mm | - | - | - |
| 1777716313 | 23.89° C | 83% | 1010 hPa | 0 mm | - | - | - |
| 1777715712 | 24.44° C | 83% | 1010 hPa | 0 mm | - | - | - |
| 1777715112 | 21.67° C | 79% | 1010 hPa | 0 mm | - | - | - |
* Rain latest hour (hover to see other rain measurements)
** Current wind speed in m/s (hover to see current wind gust speed)